Location: Columbus
(29.5618°N, 96.6770°W)
Time: 09:46:52
(UTC-05:00)

Iridium 59 - Visible Passes

Search period start: 28 August 2015 00:00
Search period end: 07 September 2015 00:00
Orbit: 776 x 779 km, 86.4° (Epoch: 28 August)

Date Brightness Start Highest point End Pass type
(mag) Time Alt. Az. Time Alt. Az. Time Alt. Az.
28 Aug 6.7 04:03:39 10° N 04:06:11 29° NNE 04:06:11 29° NNE visible
29 Aug 7.5 03:30:39 10° NNE 03:32:14 18° NE 03:32:14 18° NE visible
29 Aug 7.1 05:11:46 10° NW 05:12:41 14° NW 05:12:41 14° NW visible
30 Aug 7.0 04:37:25 10° NNW 04:38:45 18° NNW 04:38:45 18° NNW visible
31 Aug 7.3 04:03:40 10° N 04:04:52 17° N 04:04:52 17° N visible
01 Sep 7.7 03:30:21 10° NNE 03:31:01 13° NNE 03:31:01 13° NNE visible
